Wind_Speed
30 32 35 39 40 37 35 35 34 33 34 36 35 34 33 34 33 33 33 34 35 36 38 38 37 35 34 32 29 29 28 24 21 17 17 19 18 21 24 22 22 20 19
40 38 39 41 43 44 39 37 35 35 34 34 33 32 31 30 29 28 29 30 31 32 31 31 29 28 30 29 29 29 27 26 23 23 20 21 22 24 22 21 22 23 22
50 46 43 46 46 43 41 39 37 36 35 31 31 30 28 27 24 23 24 24 24 26 25 25 24 25 25 24 26 23 22 20 19 21 23 20 18 17 17 18 18 18 20
56 54 53 51 49 44 43 42 41 39 37 31 29 29 29 28 24 22 21 19 20 21 23 22 23 24 18 22 20 17 19 15 16 18 16 13 14 14 15 15 17 21 24
65 64 64 60 53 53 52 51 48 42 37 33 27 28 27 26 21 20 19 16 16 21 23 21 25 26 21 15 15 14 12 10 11 14 15 13 14 14 15 16 17 18 20
73 72 70 66 59 57 56 52 48 43 37 34 28 28 25 24 21 20 18 15 17 21 20 20 21 21 23 19 15 11 11 14 16 16 14 13 13 14 14 14 15 16 18
70 71 73 73 70 64 58 50 45 42 38 35 30 28 25 24 21 20 19 13 15 18 21 21 20 19 18 16 12 12 13 14 14 14 13 11 10 10 11 13 15 17 18
74 78 78 72 67 63 58 48 45 43 40 36 30 28 27 26 22 21 22 16 15 18 19 18 17 16 16 13 11 13 14 14 12 11 10 8 8 9 10 11 13 15 18
85 81 78 75 70 63 58 51 48 46 43 39 32 30 28 26 23 22 22 18 19 21 19 16 15 15 15 14 14 14 13 12 12 11 9 9 8 9 10 12 14 15 18
77 72 69 64 60 55 52 49 52 49 44 41 35 31 30 28 25 24 22 20 22 22 21 17 16 16 15 14 14 13 13 14 13 11 11 9 9 9 9 11 12 13 14
53 46 45 42 38 38 42 47 51 51 44 40 39 34 31 29 28 26 23 21 20 20 18 17 16 18 18 17 15 14 14 14 14 13 12 9 8 6 5 7 10 13 14
40 37 37 36 36 38 37 37 45 52 49 47 40 39 34 30 28 27 24 21 18 19 18 17 18 21 21 16 14 14 15 15 15 14 11 10 7 4 5 7 9 11 13
38 39 40 43 43 39 39 39 41 53 52 45 41 43 36 29 27 26 23 21 20 19 19 20 20 21 19 15 16 16 16 16 15 13 11 8 6 6 7 8 7 9 13
42 42 42 41 41 40 35 33 39 54 55 38 38 43 34 29 26 24 20 19 21 20 20 20 21 21 19 14 15 16 16 16 16 13 9 8 7 7 8 7 6 7 12
43 43 41 39 38 35 33 36 42 58 64 48 44 39 31 27 25 24 21 21 24 24 21 19 18 17 17 17 17 16 15 15 14 11 10 9 9 8 8 9 6 7 12
43 39 38 36 35 33 35 42 44 61 69 54 48 37 30 30 29 26 25 26 28 25 21 17 15 16 16 16 15 14 13 13 13 13 12 11 10 8 9 9 8 9 13
45 37 33 31 31 31 33 30 39 60 55 50 48 40 35 31 29 27 26 27 28 25 22 18 17 18 17 15 14 13 13 14 15 14 13 11 9 8 8 8 8 11 12
35 31 27 26 26 23 21 28 46 44 48 53 44 41 38 33 31 29 28 27 26 24 22 20 18 18 17 15 14 14 15 15 15 15 14 12 11 10 10 10 10 12 13
25 23 21 22 19 17 26 47 44 37 54 49 45 41 36 33 31 28 27 25 23 22 21 20 19 19 18 16 15 15 15 15 15 16 15 15 14 13 13 14 16 17 17
19 21 21 21 19 21 38 42 31 43 47 45 43 37 33 30 28 25 23 22 21 20 19 18 17 16 16 15 15 16 15 15 17 18 18 18 18 19 19 20 22 24 25
16 19 22 22 19 29 42 35 37 42 39 42 40 34 32 30 28 26 24 22 19 18 16 14 13 14 14 14 14 15 17 17 18 20 20 19 20 21 22 23 25 25 25
20 22 24 22 25 40 43 40 39 37 35 37 35 32 30 31 30 28 25 21 18 16 14 13 12 12 13 14 14 15 17 19 20 20 20 20 21 23 25 26 24 22 22
18 23 25 28 38 48 40 38 38 35 35 34 33 30 28 30 30 29 25 21 18 16 14 13 13 13 14 16 16 17 19 21 21 20 19 19 20 23 26 27 25 23 23
16 24 33 40 51 54 41 39 36 31 31 35 34 30 29 30 29 27 24 21 19 17 15 14 15 16 17 18 18 19 20 20 20 19 20 21 21 23 26 26 25 24 24
26 37 44 49 55 48 45 47 42 36 34 32 28 26 27 27 25 23 21 20 18 18 16 16 17 17 17 18 18 18 18 18 17 18 20 21 23 24 24 23 23 23 23
41 44 46 49 47 46 47 45 38 36 34 28 24 22 20 19 19 19 19 19 18 17 16 17 16 15 15 16 16 16 15 14 15 17 19 20 22 23 23 22 22 23 24
Wind_Direction
303 306 307 307 309 311 311 310 310 315 325 329 321 305 300 298 290 283 277 270 266 265 265 264 264 264 263 260 250 240 225 225 226 229 233 231 245 256 267 273 271 263 250
300 304 306 304 304 306 307 305 306 308 317 325 325 312 308 303 296 290 281 272 269 269 270 270 262 258 256 248 238 229 219 220 227 242 252 253 262 268 265 258 254 251 249
301 300 303 303 301 301 303 304 303 306 310 318 322 315 314 310 304 295 290 279 271 261 259 259 262 255 236 227 216 219 227 225 238 255 262 256 256 256 249 243 244 249 257
297 297 297 299 297 296 300 303 302 302 306 310 313 311 309 311 310 306 306 291 265 251 255 259 259 252 228 218 225 225 239 243 260 253 239 225 230 232 238 252 258 257 258
293 291 294 295 294 292 294 297 297 297 297 302 305 302 304 307 304 297 302 282 256 246 241 249 249 245 239 224 222 234 234 217 211 210 214 225 237 247 253 257 261 262 266
290 291 291 287 287 290 291 291 289 288 287 294 298 296 297 300 302 292 298 273 255 253 256 246 238 235 241 222 214 208 198 199 200 210 223 235 245 252 257 267 277 281 280
288 285 287 287 288 288 287 285 281 279 279 284 289 287 289 290 295 289 289 282 262 263 258 243 239 245 249 228 202 194 203 209 208 218 227 233 242 259 275 281 282 281 278
283 282 282 281 282 281 281 277 268 266 269 275 278 277 280 282 284 284 278 278 274 257 248 247 249 238 229 217 207 207 207 204 203 209 222 235 251 266 273 278 282 287 289
283 282 280 277 279 279 274 269 260 257 257 263 268 268 272 273 274 277 277 265 262 250 243 240 237 231 230 233 224 210 199 201 203 208 222 236 245 260 271 277 282 287 289
285 281 276 276 276 270 263 254 252 250 248 253 259 260 263 265 263 266 272 263 253 247 242 236 231 231 227 217 210 207 208 210 210 214 223 231 242 256 270 280 292 300 302
281 274 269 268 266 260 253 244 241 240 238 245 252 255 257 257 258 257 261 261 245 242 235 228 218 205 194 182 183 195 204 208 213 214 215 221 231 252 288 312 323 325 327
268 263 267 270 271 268 262 256 241 223 227 234 244 250 250 249 250 250 253 253 232 222 213 200 189 183 180 186 201 214 216 211 209 213 216 220 232 266 312 325 337 343 342
277 271 276 276 274 269 260 251 243 216 211 226 241 247 241 239 242 244 245 237 215 203 205 201 193 188 192 203 204 206 209 212 215 219 222 232 249 274 294 310 336 350 345
281 278 276 268 266 266 255 243 237 227 212 211 230 236 227 227 230 233 226 213 197 192 194 192 190 193 200 203 203 210 219 223 220 222 232 248 253 267 289 299 320 341 339
282 278 271 265 268 265 251 243 239 230 217 208 210 216 212 214 217 213 199 190 184 188 191 186 189 197 208 211 211 220 229 224 223 229 241 251 255 260 278 282 291 325 339
285 278 267 265 265 260 256 257 241 214 207 206 200 193 195 202 203 195 187 184 185 192 197 195 194 192 194 200 212 226 228 224 229 237 249 259 265 271 277 278 285 322 341
278 271 266 267 262 259 261 243 204 195 198 191 192 185 189 200 196 191 188 187 188 194 198 200 200 197 201 210 220 228 235 238 240 248 259 262 260 258 259 270 301 329 337
267 261 260 261 259 261 248 199 181 187 189 184 185 186 191 190 189 191 191 191 190 195 202 208 210 209 211 219 228 233 237 239 242 251 257 256 253 256 261 270 299 327 327
250 248 245 243 239 242 202 186 182 180 175 181 184 187 187 183 185 188 189 189 191 197 204 210 213 217 222 229 232 232 233 241 247 253 255 256 258 259 266 276 288 304 316
238 232 222 213 218 209 189 184 178 169 175 176 180 183 184 182 181 181 187 188 190 194 199 203 208 217 225 229 232 236 238 245 254 260 259 257 260 265 273 279 284 290 297
227 217 207 204 209 187 178 166 163 173 178 176 179 184 183 177 174 176 184 189 190 191 193 198 208 219 227 232 237 243 249 253 261 266 265 263 266 273 279 284 287 285 292
222 215 203 203 185 173 167 158 156 171 176 174 179 187 182 177 175 177 183 188 190 191 194 203 217 229 238 244 248 251 257 262 266 267 266 268 272 279 285 291 291 291 297
210 200 194 182 171 163 155 162 164 169 174 176 179 185 185 181 181 183 186 188 191 194 203 217 232 243 249 252 252 252 256 262 266 263 263 269 277 285 291 294 296 297 300
174 172 165 162 163 161 158 162 161 163 169 172 181 186 184 182 183 186 189 193 198 204 215 230 243 248 250 251 250 250 254 263 262 259 264 271 279 286 290 292 293 295 300
136 146 151 153 156 158 163 168 167 169 173 171 172 178 179 181 184 189 197 204 207 208 219 234 242 246 248 248 251 253 257 262 260 263 268 275 284 290 292 290 290 295 300
124 134 142 147 150 155 160 166 168 170 167 163 166 174 180 187 194 201 203 201 199 209 231 240 241 245 246 249 253 255 256 259 267 272 276 280 287 292 294 293 294 297 297
Height
5768 5766 5764 5760 5758 5756 5754 5751 5747 5742 5736 5730 5723 5719 5715 5712 5710 5709 5707 5706 5706 5706 5706 5705 5704 5704 5704 5707 5710 5713 5717 5723 5727 5730 5731 5732 5733 5736 5736 5736 5737 5740 5743
5758 5756 5753 5751 5749 5745 5744 5741 5739 5735 5730 5724 5718 5714 5710 5705 5702 5700 5697 5696 5695 5696 5696 5694 5694 5695 5697 5700 5701 5705 5710 5715 5720 5723 5726 5727 5729 5730 5730 5731 5733 5735 5737
5746 5744 5743 5740 5738 5735 5733 5732 5729 5725 5720 5716 5711 5708 5705 5701 5697 5694 5690 5688 5688 5689 5689 5689 5689 5691 5691 5692 5693 5699 5703 5708 5713 5718 5720 5721 5722 5723 5725 5726 5729 5731 5732
5733 5731 5731 5731 5727 5725 5724 5722 5720 5716 5711 5708 5705 5702 5700 5695 5692 5689 5683 5682 5683 5684 5683 5685 5686 5687 5688 5691 5693 5697 5701 5705 5709 5712 5714 5715 5717 5719 5721 5723 5724 5726 5728
5718 5718 5717 5717 5717 5714 5713 5712 5711 5708 5704 5701 5699 5696 5693 5690 5687 5686 5682 5679 5679 5681 5680 5680 5681 5684 5686 5688 5690 5695 5698 5700 5704 5707 5709 5711 5713 5715 5717 5718 5719 5720 5721
5703 5702 5701 5700 5701 5701 5701 5699 5698 5698 5696 5693 5692 5690 5688 5685 5682 5682 5679 5676 5676 5677 5679 5679 5679 5680 5683 5684 5686 5690 5694 5697 5699 5703 5705 5707 5709 5712 5714 5714 5715 5715 5715
5686 5684 5684 5683 5683 5683 5684 5687 5686 5686 5686 5685 5684 5682 5681 5680 5677 5676 5676 5673 5672 5672 5673 5676 5676 5678 5680 5680 5683 5687 5691 5694 5696 5698 5701 5704 5706 5708 5709 5710 5711 5711 5711
5663 5662 5662 5662 5662 5663 5665 5669 5671 5673 5675 5674 5675 5674 5674 5674 5672 5671 5672 5670 5670 5670 5670 5671 5673 5673 5675 5677 5680 5684 5688 5691 5693 5695 5698 5701 5702 5704 5706 5707 5706 5705 5703
5636 5634 5635 5637 5639 5640 5645 5649 5654 5658 5661 5662 5664 5665 5666 5666 5664 5664 5665 5665 5666 5666 5666 5667 5668 5670 5672 5675 5679 5682 5684 5688 5691 5693 5695 5697 5699 5701 5702 5702 5701 5701 5700
5609 5607 5608 5609 5612 5615 5620 5629 5635 5640 5645 5649 5653 5655 5656 5657 5656 5658 5659 5659 5659 5659 5660 5662 5665 5666 5668 5671 5676 5679 5682 5686 5688 5690 5692 5695 5696 5698 5697 5697 5696 5696 5694
5584 5582 5583 5586 5589 5593 5597 5604 5613 5623 5629 5636 5641 5644 5645 5647 5647 5650 5651 5653 5653 5654 5655 5657 5659 5663 5665 5670 5674 5678 5681 5683 5685 5688 5691 5692 5693 5693 5693 5692 5690 5688 5686
5566 5568 5569 5570 5574 5578 5583 5587 5592 5603 5615 5623 5629 5633 5634 5636 5638 5641 5643 5646 5647 5649 5651 5653 5655 5660 5663 5668 5672 5675 5678 5680 5683 5686 5686 5688 5689 5688 5687 5687 5686 5684 5681
5550 5552 5553 5554 5555 5559 5564 5571 5577 5585 5598 5608 5616 5622 5623 5626 5630 5633 5636 5638 5641 5645 5647 5649 5653 5657 5661 5666 5670 5673 5676 5678 5680 5681 5682 5683 5683 5683 5684 5683 5681 5679 5677
5535 5536 5537 5538 5539 5541 5547 5554 5560 5567 5576 5590 5601 5609 5612 5617 5621 5626 5629 5631 5636 5641 5644 5646 5650 5655 5658 5661 5665 5669 5672 5674 5675 5676 5677 5678 5679 5680 5680 5678 5677 5675 5674
5517 5518 5519 5520 5520 5523 5530 5537 5545 5551 5559 5575 5588 5596 5603 5609 5615 5620 5623 5627 5632 5637 5640 5643 5647 5651 5654 5658 5663 5666 5668 5670 5671 5672 5674 5675 5676 5676 5675 5674 5673 5671 5669
5500 5502 5503 5504 5505 5508 5512 5514 5513 5525 5544 5564 5573 5582 5594 5602 5608 5614 5619 5623 5628 5633 5637 5640 5643 5647 5651 5656 5660 5662 5664 5666 5668 5670 5671 5671 5672 5671 5671 5670 5668 5666 5663
5482 5485 5489 5490 5490 5492 5495 5493 5498 5517 5538 5555 5564 5573 5585 5595 5603 5608 5614 5619 5624 5629 5634 5637 5640 5644 5648 5652 5655 5658 5660 5662 5665 5666 5667 5667 5667 5667 5667 5666 5663 5661 5658
5465 5470 5475 5479 5480 5482 5482 5487 5502 5518 5533 5547 5558 5569 5578 5587 5595 5602 5609 5616 5621 5626 5630 5634 5637 5641 5644 5648 5651 5654 5656 5658 5660 5661 5662 5662 5662 5662 5662 5661 5659 5657 5656
5452 5457 5464 5469 5473 5477 5480 5489 5501 5514 5526 5539 5555 5565 5573 5580 5589 5597 5605 5611 5617 5622 5627 5630 5634 5638 5641 5644 5647 5650 5652 5653 5655 5656 5656 5656 5656 5656 5656 5655 5655 5653 5651
5442 5447 5453 5460 5468 5473 5480 5494 5506 5515 5526 5538 5552 5561 5570 5578 5586 5594 5602 5608 5613 5619 5623 5627 5630 5634 5637 5640 5642 5644 5646 5648 5649 5650 5650 5650 5650 5650 5650 5649 5648 5647 5646
5435 5439 5446 5454 5461 5469 5482 5497 5507 5517 5528 5539 5551 5560 5569 5577 5585 5593 5599 5606 5611 5616 5620 5623 5627 5630 5633 5636 5638 5639 5641 5642 5644 5644 5645 5645 5644 5643 5643 5643 5642 5640 5639
5428 5434 5440 5447 5456 5470 5483 5492 5503 5515 5528 5540 5552 5559 5567 5575 5583 5591 5597 5604 5610 5614 5618 5621 5624 5627 5629 5630 5633 5635 5636 5637 5638 5639 5639 5639 5638 5637 5636 5636 5634 5633 5632
5422 5429 5437 5445 5456 5471 5481 5493 5504 5514 5526 5539 5550 5559 5568 5576 5582 5589 5596 5602 5608 5613 5617 5619 5622 5624 5625 5626 5629 5631 5631 5632 5632 5633 5633 5633 5632 5631 5629 5628 5627 5626 5625
5420 5429 5438 5448 5462 5476 5487 5499 5508 5519 5530 5542 5552 5561 5568 5574 5581 5587 5593 5599 5605 5610 5614 5617 5619 5621 5622 5623 5624 5625 5626 5626 5627 5626 5627 5627 5626 5625 5624 5622 5621 5620 5619
5426 5435 5445 5456 5470 5483 5494 5504 5513 5524 5535 5545 5554 5562 5569 5575 5580 5586 5591 5597 5602 5607 5611 5614 5616 5617 5618 5619 5619 5619 5620 5621 5621 5621 5621 5621 5620 5619 5618 5616 5615 5614 5613
5439 5448 5459 5470 5479 5489 5500 5511 5520 5531 5541 5550 5557 5564 5570 5575 5580 5584 5589 5594 5599 5604 5608 5610 5611 5612 5614 5614 5615 5615 5615 5616 5616 5616 5616 5616 5614 5613 5611 5610 5609 5608 5606